Dewpoint
58 57 57 57 58 58 57 58 57 57 57 57 57 57 58 58 59 59 59 59 58 58 59 58 58 58 59 58 58 58 57 57 56 56 56 56 55 56 57 57 57 55
57 57 57 57 57 57 57 58 58 57 57 58 57 57 58 59 59 59 59 59 59 59 59 59 58 58 58 58 58 58 57 57 57 57 56 56 56 56 56 56 56 56
57 57 57 57 57 57 57 58 58 58 58 58 58 58 58 59 59 59 59 59 59 59 59 59 59 58 58 58 58 58 58 57 57 57 57 57 56 56 55 56 55 56
57 57 57 58 58 57 57 57 58 57 58 58 58 59 58 60 59 59 60 58 59 59 59 59 59 58 58 58 59 58 58 58 57 57 57 57 57 57 56 56 56 56
57 57 57 57 58 58 57 57 57 58 58 58 58 59 58 59 59 59 60 60 59 59 59 59 58 58 58 58 58 58 58 57 58 57 57 57 57 57 57 56 56 56
56 57 57 57 57 58 57 57 57 58 58 58 58 58 58 59 59 59 59 59 59 59 59 59 58 58 58 58 58 58 58 58 57 58 57 57 57 57 57 57 56 56
56 57 57 57 57 58 57 57 57 58 58 58 58 58 58 58 59 58 58 59 59 58 58 58 58 58 58 58 58 58 58 58 57 57 57 57 57 57 57 57 56 56
55 57 57 57 57 57 58 58 58 58 58 58 58 58 59 59 58 59 59 58 58 58 58 58 58 58 58 58 57 58 57 58 58 57 57 57 57 56 56 57 57 56
55 56 56 57 58 58 58 58 58 58 58 58 58 58 58 59 59 59 59 58 58 58 58 58 58 58 58 57 57 57 57 57 58 57 57 56 56 56 56 57 57 56
54 55 56 57 58 58 58 58 59 59 58 59 59 59 58 58 58 58 58 58 58 58 58 57 58 58 57 57 57 57 57 57 57 57 57 57 56 56 57 57 57 56
53 55 56 57 57 58 58 59 59 59 59 59 59 58 58 58 58 58 58 57 58 57 57 57 57 57 57 57 57 57 57 57 57 57 57 57 57 57 53 57 56 56
52 54 55 55 56 57 58 58 58 59 59 59 58 57 57 57 57 57 57 57 57 57 57 57 57 57 57 57 57 57 57 57 57 56 56 56 57 57 57 56 56 56
50 52 53 54 55 55 56 56 57 58 58 57 57 57 57 57 57 57 57 57 57 57 57 57 57 57 57 57 57 57 57 57 57 57 57 57 57 57 57 57 56 56
47 49 51 52 53 53 54 54 55 55 56 56 56 56 57 57 57 57 57 58 57 57 57 57 57 57 57 57 56 56 56 57 57 57 57 57 56 56 56 56 56 56
46 47 48 48 49 50 50 51 52 52 53 54 54 54 55 56 56 56 57 57 57 57 57 57 57 57 57 57 57 57 57 57 57 56 56 56 56 56 56 56 56 56
44 45 45 45 45 46 46 47 48 49 50 51 52 52 52 53 54 55 56 56 56 56 56 57 57 57 50 50 50 56 57 57 56 56 55 55 54 54 54 54 55 56
43 43 44 43 43 43 43 44 45 47 47 47 48 49 50 51 52 52 53 54 55 55 55 55 56 55 49 49 49 49 54 56 56 56 55 55 55 54 54 52 51 52
41 41 42 42 42 41 41 42 43 43 44 45 46 46 46 46 48 49 50 51 52 53 54 54 55 48 48 48 48 48 47 53 56 56 55 55 55 54 54 52 50 50
42 41 41 41 42 42 42 42 42 42 42 42 42 43 42 44 45 46 47 49 50 51 51 52 53 49 47 47 47 47 47 48 54 55 55 54 54 54 53 51 49 48
40 40 40 40 41 41 41 41 41 41 41 41 41 41 42 43 43 43 45 46 47 48 49 50 51 48 47 46 46 46 46 46 51 53 54 54 53 52 52 50 49 49
41 40 40 40 40 40 41 41 41 41 41 41 40 40 41 42 42 42 43 43 44 45 46 47 49 46 46 45 45 45 45 45 50 51 52 53 53 51 50 49 49 49
40 39 40 40 40 40 40 40 40 40 40 40 39 39 40 41 41 41 41 42 43 43 44 45 46 44 44 44 44 45 44 46 48 50 50 51 50 49 47 47 48 47
39 39 38 39 39 39 39 39 39 39 39 38 39 38 39 40 40 41 41 42 41 42 43 43 44 43 43 43 43 44 44 46 47 47 47 48 48 48 47 46 46 45
37 38 38 37 38 38 38 38 38 38 37 37 38 38 38 39 40 40 41 41 41 41 42 42 43 42 42 42 42 42 43 45 45 45 45 45 46 46 46 45 44 40
37 37 37 37 37 37 37 37 36 36 36 36 38 39 39 39 38 38 39 39 41 41 38 40 42 41 41 42 42 42 41 45 45 44 44 44 45 45 44 43 43 39
36 36 36 36 35 36 35 36 36 36 36 36 36 37 37 38 38 37 38 38 38 40 40 40 41 42 41 41 41 41 42 42 43 43 42 43 43 44 44 41 40 40